Location: Unspecified
(52.1971°N, 0.0000°E)
Time: 08:38:46
(UTC+00:00)

YUBILEINY - Pass Details

Date: 19 December 2019
Orbit: 1478 x 1509 km, 82.5° (Epoch: 26 January)

Event Time Altitude Azimuth Distance (km) Brightness Sun altitude
Exits shadow 23:16:58 13° 352° (N) 3,401 ? -60.2°
Drops below altitude 10° 23:18:04 10° 358° (N) 3,630 ? -60.3°
Sets 23:21:59 0° 14° (NNE) 4,613 ? -60.4°
